This demonstration page uses our WeatherBlox Daily Observations layout. Learn more.

40.92945, -100.16068

Hourly Observations for January 16, 2020

Temp ( °F °C ) Dew Point ( °F °C ) Humidity (%) Winds ( mph kmh ) Pressure ( in mb ) Visibility ( mi km ) Precip ( " mm )
12:15 am 00:15 Clear 10 -12.3 5 -15.1 80 80 Calm 30.82 1044 10 16.0934 0 0
12:35 am 00:35 Clear 10 -12.4 5 -15 81 81 Calm 30.83 1044 10 16.0934 0 0
12:55 am 00:55 Clear 10 -12.3 4 -15.8 75 75 Calm 30.82 1044 10 16.0934 0 0
1:15 am 01:15 Clear 9 -12.6 4 -15.7 78 78 Calm 30.82 1044 10 16.0934 0 0
1:35 am 01:35 Clear 9 -13 4 -15.5 82 82 S 3 6 30.83 1044 10 16.0934 0 0
1:55 am 01:55 Clear 9 -12.9 4 -15.5 81 81 Calm 30.83 1044 10 16.0934 0 0
2:15 am 02:15 Clear 9 -12.8 4 -15.5 80 80 Calm 30.84 1044 10 16.0934 0 0
2:35 am 02:35 Clear 9 -12.9 4 -15.5 81 81 Calm 30.84 1044 10 16.0934 0 0
2:55 am 02:55 Clear 8 -13.1 4 -15.5 82 82 SSE 3 6 30.85 1045 10 16.0934 0 0
3:15 am 03:15 Clear 8 -13.5 4 -15.8 83 83 S 6 9 30.86 1045 10 16.0934 0 0
3:35 am 03:35 Clear 8 -13.6 3 -15.9 83 83 S 5 7 30.86 1045 10 16.0934 0 0
3:55 am 03:55 Clear 8 -13.3 4 -15.8 82 82 SSE 3 6 30.85 1045 10 16.0934 0 0
4:15 am 04:15 Clear 8 -13.5 3 -16 82 82 SSE 5 7 30.84 1044 10 16.0934 0 0
4:35 am 04:35 Clear 8 -13.6 3 -16 82 82 SSE 5 7 30.86 1045 10 16.0934 0 0
4:55 am 04:55 Clear 8 -13.5 4 -15.7 84 84 ESE 3 6 30.84 1044 10 16.0934 0 0
5:15 am 05:15 Clear 7 -13.8 3 -16.1 83 83 Calm 30.85 1045 10 16.0934 0 0
5:35 am 05:35 Clear 8 -13.6 3 -15.9 83 83 Calm 30.84 1045 10 16.0934 0 0
5:55 am 05:55 Clear 8 -13.5 3 -16 82 82 Calm 30.83 1044 10 16.0934 0 0
6:15 am 06:15 Clear 8 -13.5 3 -16 82 82 Calm 30.84 1044 10 16.0934 0 0
6:35 am 06:35 Clear 8 -13.3 3 -16 80 80 SSE 3 6 30.86 1045 10 16.0934 0 0
6:55 am 06:55 Clear 8 -13.5 3 -16 82 82 SSE 3 6 30.84 1044 10 16.0934 0 0
7:15 am 07:15 Clear 8 -13.3 4 -15.6 83 83 SE 3 6 30.84 1044 10 16.0934 0 0
7:35 am 07:35 Clear 8 -13.1 4 -15.6 82 82 SE 3 6 30.83 1044 10 16.0934 0 0
7:55 am 07:55 Clear 8 -13.1 4 -15.8 80 80 SSE 6 9 30.86 1045 10 16.0934 0 0
8:15 am 08:15 Sunny 8 -13.1 4 -15.7 81 81 SSE 6 9 30.86 1045 10 16.0934 0 0
8:35 am 08:35 Sunny 8 -13.1 3 -15.9 80 80 SE 6 9 30.86 1045 10 16.0934 0 0
8:55 am 08:55 Sunny 9 -12.9 4 -15.7 80 80 SSE 7 11 30.86 1045 10 16.0934 0 0
9:15 am 09:15 Sunny 10 -12.3 3 -15.9 75 75 SSE 8 13 30.86 1045 10 16.0934 0 0
9:35 am 09:35 Sunny 11 -11.8 4 -15.7 73 73 SSE 7 11 30.85 1045 10 16.0934 0 0
9:55 am 09:55 Sunny 11 -11.5 3 -16.3 68 68 SE 6 9 30.84 1044 10 16.0934 0 0
10:15 am 10:15 Sunny 13 -10.7 3 -16 65 65 SE 8 13 30.83 1044 10 16.0934 0 0
10:35 am 10:35 Sunny 14 -10.1 3 -16.2 61 61 SE 12 19 30.83 1044 10 16.0934 0 0
10:55 am 10:55 Sunny 14 -9.8 4 -15.4 64 64 SSE 9 15 30.82 1044 10 16.0934 0 0
11:15 am 11:15 Sunny 15 -9.6 5 -14.9 66 66 SSE 9 15 30.83 1044 10 16.0934 0 0
11:35 am 11:35 Sunny 15 -9.2 4 -15.3 62 62 SSE 9 15 30.81 1043 10 16.0934 0 0
11:55 am 11:55 Sunny 16 -9.1 5 -14.8 64 64 SSE 7 11 30.79 1043 10 16.0934 0 0
12:15 pm 12:15 Sunny 17 -8.1 7 -13.9 63 63 SSE 10 17 30.76 1042 10 16.0934 0 0
12:35 pm 12:35 Sunny 19 -7.4 8 -13.6 62 62 SSE 9 15 30.74 1041 10 16.0934 0 0
12:55 pm 12:55 Sunny 20 -6.5 9 -12.8 61 61 SSE 13 20 30.72 1040 10 16.0934 0 0
1:15 pm 13:15 Sunny 20 -6.5 9 -12.8 61 61 SSE 13 20 30.7 1039 10 16.0934 0 0
1:35 pm 13:35 Sunny 21 -6 10 -12.5 60 60 SSE 13 20 30.67 1039 10 16.0934 0 0
1:55 pm 13:55 Sunny 22 -5.7 10 -12.3 60 60 SE 14 22 30.67 1039 10 16.0934 0 0
2:15 pm 14:15 Sunny 23 -5.2 10 -12 59 59 SSE 14 22 30.65 1038 10 16.0934 0 0
2:35 pm 14:35 Sunny 23 -4.8 11 -11.8 58 58 SSE 13 20 30.64 1038 10 16.0934 0 0
2:55 pm 14:55 Sunny 23 -4.9 11 -11.9 58 58 SSE 13 20 30.63 1037 10 16.0934 0 0
3:15 pm 15:15 Sunny 23 -4.9 11 -11.9 58 58 SSE 16 26 30.63 1037 10 16.0934 0 0
3:35 pm 15:35 Sunny 23 -5 10 -12 58 58 SE 16 26 30.63 1037 10 16.0934 0 0
3:55 pm 15:55 Sunny 23 -5.1 11 -11.9 59 59 SSE 16 26 30.62 1037 10 16.0934 0 0
4:15 pm 16:15 Sunny 23 -5 11 -11.8 59 59 SSE 15 24 30.63 1037 10 16.0934 0 0
4:35 pm 16:35 Sunny 23 -5.1 10 -12 59 59 SSE 16 26 30.62 1037 10 16.0934 0 0
4:55 pm 16:55 Mostly Cloudy 23 -5.2 11 -11.9 60 60 SE 15 24 30.63 1037 10 16.0934 0 0
5:15 pm 17:15 Cloudy 22 -5.3 10 -12.1 59 59 SE 13 20 30.61 1037 10 16.0934 0 0
5:35 pm 17:35 Cloudy 23 -5.1 10 -12 59 59 SSE 16 26 30.61 1037 10 16.0934 0 0
5:55 pm 17:55 Cloudy 22 -5.5 10 -12 61 61 SE 16 26 30.61 1036 10 16.0934 0 0
7:15 pm 19:15 Cloudy 22 -5.5 11 -11.6 63 63 SSE 16 26 30.61 1036 10 16.0934 0 0
7:35 pm 19:35 Cloudy 22 -5.5 11 -11.6 63 63 SSE 17 28 30.6 1036 10 16.0934 0 0
7:55 pm 19:55 Cloudy 22 -5.5 11 -11.6 63 63 SSE 14 22 30.59 1036 10 16.0934 0 0
8:15 pm 20:15 Cloudy 22 -5.5 11 -11.5 63 63 SSE 15 24 30.56 1035 10 16.0934 0 0
8:35 pm 20:35 Cloudy 22 -5.6 11 -11.5 64 64 SE 15 24 30.55 1034 10 16.0934 0 0
8:55 pm 20:55 Cloudy 22 -5.6 11 -11.6 63 63 SE 16 26 30.54 1034 10 16.0934 0 0
9:15 pm 21:15 Cloudy 22 -5.7 11 -11.7 63 63 SE 16 26 30.53 1034 10 16.0934 0 0
9:35 pm 21:35 Cloudy 22 -5.8 11 -11.7 63 63 SE 14 22 30.52 1033 10 16.0934 0 0
9:55 pm 21:55 Cloudy 21 -6 11 -11.6 65 65 SSE 13 20 30.51 1033 10 16.0934 0 0
10:15 pm 22:15 Mostly Cloudy 21 -6 11 -11.6 65 65 SSE 16 26 30.52 1034 10 16.0934 0 0
10:35 pm 22:35 Partly Cloudy 21 -6.1 11 -11.8 64 64 SE 15 24 30.51 1033 10 16.0934 0 0
10:55 pm 22:55 Partly Cloudy 20 -6.5 10 -12 65 65 SE 13 20 30.52 1033 10 16.0934 0 0
11:15 pm 23:15 Mostly Cloudy 20 -6.7 10 -12 66 66 SE 15 24 30.52 1033 10 16.0934 0 0
11:35 pm 23:35 Partly Cloudy 19 -7 10 -12 68 68 SE 14 22 30.52 1034 10 16.0934 0 0
11:55 pm 23:55 Mostly Cloudy 19 -7 11 -11.7 69 69 SE 13 20 30.51 1033 10 16.0934 0 0

Powered by AerisWeather